Year,Month,Day,Hour,Minute,Value (Times are PST for temperature in C)
2021,07,30,00,00,22.10
2021,07,30,00,01,22.10
2021,07,30,00,02,22.10
2021,07,30,00,03,22.10
2021,07,30,00,04,22.10
2021,07,30,00,05,22.10
2021,07,30,00,06,22.10
2021,07,30,00,07,22.10
2021,07,30,00,08,22.10
2021,07,30,00,09,22.10
2021,07,30,00,10,22.00
2021,07,30,00,11,22.00
2021,07,30,00,12,22.00
2021,07,30,00,13,22.00
2021,07,30,00,14,21.90
2021,07,30,00,15,21.90
2021,07,30,00,16,21.90
2021,07,30,00,17,21.90
2021,07,30,00,18,22.00
2021,07,30,00,19,22.00
2021,07,30,00,20,22.10
2021,07,30,00,21,22.10
2021,07,30,00,22,22.10
2021,07,30,00,23,22.10
2021,07,30,00,24,22.10
2021,07,30,00,25,22.10
2021,07,30,00,26,22.10
2021,07,30,00,27,22.10
2021,07,30,00,28,22.10
2021,07,30,00,29,22.10
2021,07,30,00,30,22.10
2021,07,30,00,31,22.10
2021,07,30,00,32,22.10
2021,07,30,00,33,22.00
2021,07,30,00,34,21.90
2021,07,30,00,35,21.90
2021,07,30,00,36,21.80
2021,07,30,00,37,21.80
2021,07,30,00,38,21.70
2021,07,30,00,39,21.70
2021,07,30,00,40,21.60
2021,07,30,00,41,21.60
2021,07,30,00,42,21.50
2021,07,30,00,43,21.40
2021,07,30,00,44,21.40
2021,07,30,00,45,21.40
2021,07,30,00,46,21.50
2021,07,30,00,47,21.50
2021,07,30,00,48,21.60
2021,07,30,00,49,21.60
2021,07,30,00,50,21.50
2021,07,30,00,51,21.50
2021,07,30,00,52,21.50
2021,07,30,00,53,21.50
2021,07,30,00,54,21.40
2021,07,30,00,55,21.40
2021,07,30,00,56,21.40
2021,07,30,00,57,21.40
2021,07,30,00,58,21.40
2021,07,30,00,59,21.40
2021,07,30,01,00,21.40
2021,07,30,01,01,21.30
2021,07,30,01,02,21.30
2021,07,30,01,03,21.30
2021,07,30,01,04,21.30
2021,07,30,01,05,21.30
2021,07,30,01,06,21.40
2021,07,30,01,07,21.40
2021,07,30,01,08,21.40
2021,07,30,01,09,21.40
2021,07,30,01,10,21.40
2021,07,30,01,11,21.40
2021,07,30,01,12,21.40
2021,07,30,01,13,21.40
2021,07,30,01,14,21.30
2021,07,30,01,15,21.30
2021,07,30,01,16,21.30
2021,07,30,01,17,21.20
2021,07,30,01,18,21.20
2021,07,30,01,19,21.20
2021,07,30,01,20,21.20
2021,07,30,01,21,21.10
2021,07,30,01,22,21.10
2021,07,30,01,23,21.10
2021,07,30,01,24,21.10
2021,07,30,01,25,21.00
2021,07,30,01,26,21.00
2021,07,30,01,27,21.00
2021,07,30,01,28,21.00
2021,07,30,01,29,21.00
2021,07,30,01,30,21.00
2021,07,30,01,31,21.00
2021,07,30,01,32,20.90
2021,07,30,01,33,20.90
2021,07,30,01,34,20.90
2021,07,30,01,35,20.90
2021,07,30,01,36,20.90
2021,07,30,01,37,20.80
2021,07,30,01,38,20.80
2021,07,30,01,39,20.80
2021,07,30,01,40,20.70
2021,07,30,01,41,20.70
2021,07,30,01,42,20.70
2021,07,30,01,43,20.70
2021,07,30,01,44,20.70
2021,07,30,01,45,20.60
2021,07,30,01,46,20.60
2021,07,30,01,47,20.60
2021,07,30,01,48,20.60
2021,07,30,01,49,20.60
2021,07,30,01,50,20.60
2021,07,30,01,51,20.60
2021,07,30,01,52,20.60
2021,07,30,01,53,20.50
2021,07,30,01,54,20.50
2021,07,30,01,55,20.40
2021,07,30,01,56,20.40
2021,07,30,01,57,20.30
2021,07,30,01,58,20.30
2021,07,30,01,59,20.30
2021,07,30,02,00,20.30
2021,07,30,02,01,20.30
2021,07,30,02,02,20.30
2021,07,30,02,03,20.30
2021,07,30,02,04,20.40
2021,07,30,02,05,20.40
2021,07,30,02,06,20.40
2021,07,30,02,07,20.40
2021,07,30,02,08,20.40
2021,07,30,02,09,20.40
2021,07,30,02,10,20.40
2021,07,30,02,11,20.40
2021,07,30,02,12,20.40
2021,07,30,02,13,20.40
2021,07,30,02,14,20.40
2021,07,30,02,15,20.40
2021,07,30,02,16,20.40
2021,07,30,02,17,20.40
2021,07,30,02,18,20.40
2021,07,30,02,19,20.40
2021,07,30,02,20,20.30
2021,07,30,02,21,20.20
2021,07,30,02,22,20.10
2021,07,30,02,23,20.10
2021,07,30,02,24,20.00
2021,07,30,02,25,19.90
2021,07,30,02,26,19.90
2021,07,30,02,27,19.80
2021,07,30,02,28,19.80
2021,07,30,02,29,19.70
2021,07,30,02,30,19.70
2021,07,30,02,31,19.60
2021,07,30,02,32,19.60
2021,07,30,02,33,19.50
2021,07,30,02,34,19.40
2021,07,30,02,35,19.40
2021,07,30,02,36,19.40
2021,07,30,02,37,19.40
2021,07,30,02,38,19.30
2021,07,30,02,39,19.30
2021,07,30,02,40,19.40
2021,07,30,02,41,19.40
2021,07,30,02,42,19.40
2021,07,30,02,43,19.40
2021,07,30,02,44,19.40
2021,07,30,02,45,19.50
2021,07,30,02,46,19.50
2021,07,30,02,47,19.60
2021,07,30,02,48,19.60
2021,07,30,02,49,19.60
2021,07,30,02,50,19.60
2021,07,30,02,51,19.60
2021,07,30,02,52,19.60
2021,07,30,02,53,19.60
2021,07,30,02,54,19.60
2021,07,30,02,55,19.60
2021,07,30,02,56,19.60
2021,07,30,02,57,19.70
2021,07,30,02,58,19.70
2021,07,30,02,59,19.70
2021,07,30,03,00,19.80
2021,07,30,03,01,19.80
2021,07,30,03,02,19.80
2021,07,30,03,03,19.80
2021,07,30,03,04,19.80
2021,07,30,03,05,19.80
2021,07,30,03,06,19.80
2021,07,30,03,07,19.80
2021,07,30,03,08,19.80
2021,07,30,03,09,19.80
2021,07,30,03,10,19.80
2021,07,30,03,11,19.70
2021,07,30,03,12,19.70
2021,07,30,03,13,19.70
2021,07,30,03,14,19.70
2021,07,30,03,15,19.80
2021,07,30,03,16,19.80
2021,07,30,03,17,19.80
2021,07,30,03,18,19.80
2021,07,30,03,19,19.80
2021,07,30,03,20,19.70
2021,07,30,03,21,19.70
2021,07,30,03,22,19.70
2021,07,30,03,23,19.60
2021,07,30,03,24,19.60
2021,07,30,03,25,19.60
2021,07,30,03,26,19.60
2021,07,30,03,27,19.60
2021,07,30,03,28,19.60
2021,07,30,03,29,19.70
2021,07,30,03,30,19.70
2021,07,30,03,31,19.70
2021,07,30,03,32,19.70
2021,07,30,03,33,19.70
2021,07,30,03,34,19.60
2021,07,30,03,35,19.60
2021,07,30,03,36,19.50
2021,07,30,03,37,19.40
2021,07,30,03,38,19.40
2021,07,30,03,39,19.30
2021,07,30,03,40,19.20
2021,07,30,03,41,19.20
2021,07,30,03,42,19.10
2021,07,30,03,43,19.00
2021,07,30,03,44,18.90
2021,07,30,03,45,18.90
2021,07,30,03,46,18.80
2021,07,30,03,47,18.80
2021,07,30,03,48,18.80
2021,07,30,03,49,18.80
2021,07,30,03,50,18.80
2021,07,30,03,51,18.80
2021,07,30,03,52,18.80
2021,07,30,03,53,18.80
2021,07,30,03,54,18.80
2021,07,30,03,55,18.80
2021,07,30,03,56,18.80
2021,07,30,03,57,18.80
2021,07,30,03,58,18.80
2021,07,30,03,59,18.80
2021,07,30,04,00,18.80
2021,07,30,04,01,18.80
2021,07,30,04,02,18.70
2021,07,30,04,03,18.70
2021,07,30,04,04,18.60
2021,07,30,04,05,18.60
2021,07,30,04,06,18.50
2021,07,30,04,07,18.50
2021,07,30,04,08,18.50
2021,07,30,04,09,18.40
2021,07,30,04,10,18.40
2021,07,30,04,11,18.40
2021,07,30,04,12,18.40
2021,07,30,04,13,18.30
2021,07,30,04,14,18.30
2021,07,30,04,15,18.30
2021,07,30,04,16,18.30
2021,07,30,04,17,18.30
2021,07,30,04,18,18.30
2021,07,30,04,19,18.30
2021,07,30,04,20,18.20
2021,07,30,04,21,18.20
2021,07,30,04,22,18.20
2021,07,30,04,23,18.20
2021,07,30,04,24,18.10
2021,07,30,04,25,18.10
2021,07,30,04,26,18.10
2021,07,30,04,27,18.00
2021,07,30,04,28,18.00
2021,07,30,04,29,17.90
2021,07,30,04,30,17.90
2021,07,30,04,31,17.90
2021,07,30,04,32,17.80
2021,07,30,04,33,17.80
2021,07,30,04,34,17.80
2021,07,30,04,35,17.80
2021,07,30,04,36,17.80
2021,07,30,04,37,17.70
2021,07,30,04,38,17.70
2021,07,30,04,39,17.70
2021,07,30,04,40,17.70
2021,07,30,04,41,17.70
2021,07,30,04,42,17.60
2021,07,30,04,43,17.60
2021,07,30,04,44,17.50
2021,07,30,04,45,17.50
2021,07,30,04,46,17.40
2021,07,30,04,47,17.40
2021,07,30,04,48,17.40
2021,07,30,04,49,17.40
2021,07,30,04,50,17.40
2021,07,30,04,51,17.50
2021,07,30,04,52,17.60
2021,07,30,04,53,17.70
2021,07,30,04,54,17.80
2021,07,30,04,55,17.90
2021,07,30,04,56,18.00
2021,07,30,04,57,18.10
2021,07,30,04,58,18.10
2021,07,30,04,59,18.20
2021,07,30,05,00,18.20
2021,07,30,05,01,18.30
2021,07,30,05,02,18.30
2021,07,30,05,03,18.40
2021,07,30,05,04,18.40
2021,07,30,05,05,18.50
2021,07,30,05,06,18.60
2021,07,30,05,07,18.70
2021,07,30,05,08,18.80
2021,07,30,05,09,18.90
2021,07,30,05,10,19.00
2021,07,30,05,11,19.00
2021,07,30,05,12,19.00
2021,07,30,05,13,19.00
2021,07,30,05,14,19.00
2021,07,30,05,15,19.00
2021,07,30,05,16,19.00
2021,07,30,05,17,19.00
2021,07,30,05,18,19.10
2021,07,30,05,19,19.10
2021,07,30,05,20,19.10
2021,07,30,05,21,19.20
2021,07,30,05,22,19.20
2021,07,30,05,23,19.20
2021,07,30,05,24,19.20
2021,07,30,05,25,19.30
2021,07,30,05,26,19.30
2021,07,30,05,27,19.30
2021,07,30,05,28,19.30
2021,07,30,05,29,19.40
2021,07,30,05,30,19.40
2021,07,30,05,31,19.40
2021,07,30,05,32,19.40
2021,07,30,05,33,19.40
2021,07,30,05,34,19.30
2021,07,30,05,35,19.30
2021,07,30,05,36,19.20
2021,07,30,05,37,19.10
2021,07,30,05,38,19.00
2021,07,30,05,39,19.00
2021,07,30,05,40,18.90
2021,07,30,05,41,18.90
2021,07,30,05,42,18.90
2021,07,30,05,43,18.90
2021,07,30,05,44,19.00
2021,07,30,05,45,19.00
2021,07,30,05,46,19.10
2021,07,30,05,47,19.10
2021,07,30,05,48,19.10
2021,07,30,05,49,19.10
2021,07,30,05,50,19.00
2021,07,30,05,51,18.90
2021,07,30,05,52,18.80
2021,07,30,05,53,18.70
2021,07,30,05,54,18.60
2021,07,30,05,55,18.50
2021,07,30,05,56,18.40
2021,07,30,05,57,18.30
2021,07,30,05,58,18.30
2021,07,30,05,59,18.30
2021,07,30,06,00,18.20
2021,07,30,06,01,18.20
2021,07,30,06,02,18.20
2021,07,30,06,03,18.20
2021,07,30,06,04,18.20
2021,07,30,06,05,18.30
2021,07,30,06,06,18.30
2021,07,30,06,07,18.30
2021,07,30,06,08,18.30
2021,07,30,06,09,18.30
2021,07,30,06,10,18.30
2021,07,30,06,11,18.30
2021,07,30,06,12,18.30
2021,07,30,06,13,18.30
2021,07,30,06,14,18.30
2021,07,30,06,15,18.30
2021,07,30,06,16,18.30
2021,07,30,06,17,18.30
2021,07,30,06,18,18.20
2021,07,30,06,19,18.10
2021,07,30,06,20,18.10
2021,07,30,06,21,18.10
2021,07,30,06,22,18.10
2021,07,30,06,23,18.20
2021,07,30,06,24,18.30
2021,07,30,06,25,18.40
2021,07,30,06,26,18.50
2021,07,30,06,27,18.60
2021,07,30,06,28,18.60
2021,07,30,06,29,18.70
2021,07,30,06,30,18.70
2021,07,30,06,31,18.80
2021,07,30,06,32,18.80
2021,07,30,06,33,18.80
2021,07,30,06,34,18.80
2021,07,30,06,35,18.80
2021,07,30,06,36,18.80
2021,07,30,06,37,18.80
2021,07,30,06,38,18.90
2021,07,30,06,39,19.00
2021,07,30,06,40,19.00
2021,07,30,06,41,19.10
2021,07,30,06,42,19.10
2021,07,30,06,43,19.10
2021,07,30,06,44,19.10
2021,07,30,06,45,19.10
2021,07,30,06,46,19.10
2021,07,30,06,47,19.20
2021,07,30,06,48,19.10
2021,07,30,06,49,19.10
2021,07,30,06,50,19.10
2021,07,30,06,51,19.10
2021,07,30,06,52,19.20
2021,07,30,06,53,19.20
2021,07,30,06,54,19.30
2021,07,30,06,55,19.30
2021,07,30,06,56,19.40
2021,07,30,06,57,19.50
2021,07,30,06,58,19.60
2021,07,30,06,59,19.70
2021,07,30,07,00,19.80
2021,07,30,07,01,19.80
2021,07,30,07,02,19.90
2021,07,30,07,03,20.00
2021,07,30,07,04,20.10
2021,07,30,07,05,20.20
2021,07,30,07,06,20.30
2021,07,30,07,07,20.40
2021,07,30,07,08,20.40
2021,07,30,07,09,20.50
2021,07,30,07,10,20.60
2021,07,30,07,11,20.70
2021,07,30,07,12,20.90
2021,07,30,07,13,21.00
2021,07,30,07,14,21.10
2021,07,30,07,15,21.20
2021,07,30,07,16,21.30
2021,07,30,07,17,21.40
2021,07,30,07,18,21.50
2021,07,30,07,19,21.50
2021,07,30,07,20,21.50
2021,07,30,07,21,21.60
2021,07,30,07,22,21.60
2021,07,30,07,23,21.60
2021,07,30,07,24,21.60
2021,07,30,07,25,21.70
2021,07,30,07,26,21.80
2021,07,30,07,27,21.80
2021,07,30,07,28,22.00
2021,07,30,07,29,22.10
2021,07,30,07,30,22.20
2021,07,30,07,31,22.30
2021,07,30,07,32,22.40
2021,07,30,07,33,22.40
2021,07,30,07,34,22.50
2021,07,30,07,35,22.50
2021,07,30,07,36,22.50
2021,07,30,07,37,22.50
2021,07,30,07,38,22.50
2021,07,30,07,39,22.40
2021,07,30,07,40,22.40
2021,07,30,07,41,22.40
2021,07,30,07,42,22.40
2021,07,30,07,43,22.50
2021,07,30,07,44,22.50
2021,07,30,07,45,22.50
2021,07,30,07,46,22.60
2021,07,30,07,47,22.60
2021,07,30,07,48,22.60
2021,07,30,07,49,22.70
2021,07,30,07,50,22.70
2021,07,30,07,51,22.80
2021,07,30,07,52,22.80
2021,07,30,07,53,22.80
2021,07,30,07,54,22.80
2021,07,30,07,55,22.80
2021,07,30,07,56,22.80
2021,07,30,07,57,22.80
2021,07,30,07,58,22.80
2021,07,30,07,59,22.90
2021,07,30,08,00,22.90
2021,07,30,08,01,23.00
2021,07,30,08,02,23.00
2021,07,30,08,03,23.10
2021,07,30,08,04,23.20
2021,07,30,08,05,23.20
2021,07,30,08,06,23.30
2021,07,30,08,07,23.30
2021,07,30,08,08,23.40
2021,07,30,08,09,23.50
2021,07,30,08,10,23.50
2021,07,30,08,11,23.50
2021,07,30,08,12,23.60
2021,07,30,08,13,23.60
2021,07,30,08,14,23.70
2021,07,30,08,15,23.70
2021,07,30,08,16,23.80
2021,07,30,08,17,23.90
2021,07,30,08,18,23.90
2021,07,30,08,19,23.90
2021,07,30,08,20,23.90
2021,07,30,08,21,24.00
2021,07,30,08,22,24.00
2021,07,30,08,23,24.10
2021,07,30,08,24,24.10
2021,07,30,08,25,24.10
2021,07,30,08,26,24.10
2021,07,30,08,27,24.20
2021,07,30,08,28,24.20
2021,07,30,08,29,24.20
2021,07,30,08,30,24.30
2021,07,30,08,31,24.30
2021,07,30,08,32,24.30
2021,07,30,08,33,24.30
2021,07,30,08,34,24.40
2021,07,30,08,35,24.40
2021,07,30,08,36,24.50
2021,07,30,08,37,24.50
2021,07,30,08,38,24.60
2021,07,30,08,39,24.60
2021,07,30,08,40,24.60
2021,07,30,08,41,24.70
2021,07,30,08,42,24.80
2021,07,30,08,43,24.90
2021,07,30,08,44,25.00
2021,07,30,08,45,25.10
2021,07,30,08,46,25.10
2021,07,30,08,47,25.20
2021,07,30,08,48,25.30
2021,07,30,08,49,25.30
2021,07,30,08,50,25.30
2021,07,30,08,51,25.40
2021,07,30,08,52,25.50
2021,07,30,08,53,25.50
2021,07,30,08,54,25.60
2021,07,30,08,55,25.60
2021,07,30,08,56,25.60
2021,07,30,08,57,25.60
2021,07,30,08,58,25.60
2021,07,30,08,59,25.60
2021,07,30,09,00,25.60
2021,07,30,09,01,25.60
2021,07,30,09,02,25.50
2021,07,30,09,03,25.40
2021,07,30,09,04,25.40
2021,07,30,09,05,25.40
2021,07,30,09,06,25.40
2021,07,30,09,07,25.30
2021,07,30,09,08,25.20
2021,07,30,09,09,25.20
2021,07,30,09,10,25.10
2021,07,30,09,11,25.10
2021,07,30,09,12,25.20
2021,07,30,09,13,25.20
2021,07,30,09,14,25.20
2021,07,30,09,15,25.20
2021,07,30,09,16,25.30
2021,07,30,09,17,25.40
2021,07,30,09,18,25.50
2021,07,30,09,19,25.50
2021,07,30,09,20,25.60
2021,07,30,09,21,25.60
2021,07,30,09,22,25.80
2021,07,30,09,23,25.90
2021,07,30,09,24,25.90
2021,07,30,09,25,25.90
2021,07,30,09,26,26.00
2021,07,30,09,27,26.00
2021,07,30,09,28,26.10
2021,07,30,09,29,26.10
2021,07,30,09,30,26.10
2021,07,30,09,31,26.10
2021,07,30,09,32,26.10
2021,07,30,09,33,26.10
2021,07,30,09,34,26.20
2021,07,30,09,35,26.20
2021,07,30,09,36,26.20
2021,07,30,09,37,26.30
2021,07,30,09,38,26.40
2021,07,30,09,39,26.40
2021,07,30,09,40,26.50
2021,07,30,09,41,26.60
2021,07,30,09,42,26.70
2021,07,30,09,43,26.70
2021,07,30,09,44,26.80
2021,07,30,09,45,26.90
2021,07,30,09,46,27.00
2021,07,30,09,47,27.00
2021,07,30,09,48,26.90
2021,07,30,09,49,26.90
2021,07,30,09,50,26.80
2021,07,30,09,51,26.80
2021,07,30,09,52,26.90
2021,07,30,09,53,26.90
2021,07,30,09,54,27.00
2021,07,30,09,55,27.10
2021,07,30,09,56,27.00
2021,07,30,09,57,27.00
2021,07,30,09,58,26.90
2021,07,30,09,59,26.80
2021,07,30,10,00,26.70
2021,07,30,10,01,26.60
2021,07,30,10,02,26.50
2021,07,30,10,03,26.50
2021,07,30,10,04,26.60
2021,07,30,10,05,26.60
2021,07,30,10,06,26.60
2021,07,30,10,07,26.70
2021,07,30,10,08,26.70
2021,07,30,10,09,26.80
2021,07,30,10,10,26.90
2021,07,30,10,11,27.00
2021,07,30,10,12,27.10
2021,07,30,10,13,27.20
2021,07,30,10,14,27.30
2021,07,30,10,15,27.40
2021,07,30,10,16,27.40
2021,07,30,10,17,27.40
2021,07,30,10,18,27.40
2021,07,30,10,19,27.30
2021,07,30,10,20,27.10
2021,07,30,10,21,27.00
2021,07,30,10,22,27.00
2021,07,30,10,23,26.90
2021,07,30,10,24,26.90
2021,07,30,10,25,26.70
2021,07,30,10,26,26.70
2021,07,30,10,27,26.70
2021,07,30,10,28,26.70
2021,07,30,10,29,26.70
2021,07,30,10,30,26.70
2021,07,30,10,31,26.80
2021,07,30,10,32,26.90
2021,07,30,10,33,27.00
2021,07,30,10,34,27.10
2021,07,30,10,35,27.00
2021,07,30,10,36,26.90
2021,07,30,10,37,26.90
2021,07,30,10,38,26.90
2021,07,30,10,39,26.80
2021,07,30,10,40,26.70
2021,07,30,10,41,26.70
2021,07,30,10,42,26.70
2021,07,30,10,43,26.80
2021,07,30,10,44,26.80
2021,07,30,10,45,26.80
2021,07,30,10,46,26.90
2021,07,30,10,47,27.00
2021,07,30,10,48,27.10
2021,07,30,10,49,27.00
2021,07,30,10,50,27.00
2021,07,30,10,51,26.90
2021,07,30,10,52,26.80
2021,07,30,10,53,26.80
2021,07,30,10,54,26.80
2021,07,30,10,55,26.80
2021,07,30,10,56,26.80
2021,07,30,10,57,26.80
2021,07,30,10,58,26.80
2021,07,30,10,59,26.80
2021,07,30,11,00,26.90
2021,07,30,11,01,27.00
2021,07,30,11,02,27.10
2021,07,30,11,03,27.20
2021,07,30,11,04,27.20
2021,07,30,11,05,27.30
2021,07,30,11,06,27.30
2021,07,30,11,07,27.20
2021,07,30,11,08,27.20
2021,07,30,11,09,27.10
2021,07,30,11,10,27.10
2021,07,30,11,11,27.10
2021,07,30,11,12,27.20
2021,07,30,11,13,27.20
2021,07,30,11,14,27.20
2021,07,30,11,15,27.20
2021,07,30,11,16,27.30
2021,07,30,11,17,27.30
2021,07,30,11,18,27.40
2021,07,30,11,19,27.50
2021,07,30,11,20,27.60
2021,07,30,11,21,27.60
2021,07,30,11,22,27.60
2021,07,30,11,23,27.60
2021,07,30,11,24,27.50
2021,07,30,11,25,27.50
2021,07,30,11,26,27.40
2021,07,30,11,27,27.50
2021,07,30,11,28,27.60
2021,07,30,11,29,27.70
2021,07,30,11,30,27.80
2021,07,30,11,31,28.00
2021,07,30,11,32,28.10
2021,07,30,11,33,28.20
2021,07,30,11,34,28.20
2021,07,30,11,35,28.20
2021,07,30,11,36,28.30
2021,07,30,11,37,28.30
2021,07,30,11,38,28.30
2021,07,30,11,39,28.30
2021,07,30,11,40,28.40
2021,07,30,11,41,28.50
2021,07,30,11,42,28.50
2021,07,30,11,43,28.70
2021,07,30,11,44,28.80
2021,07,30,11,45,28.90
2021,07,30,11,46,29.10
2021,07,30,11,47,29.20
2021,07,30,11,48,29.20
2021,07,30,11,49,29.30
2021,07,30,11,50,29.30
2021,07,30,11,51,29.40
2021,07,30,11,52,29.40
2021,07,30,11,53,29.50
2021,07,30,11,54,29.50
2021,07,30,11,55,29.40
2021,07,30,11,56,29.30
2021,07,30,11,57,29.30
2021,07,30,11,58,29.20
2021,07,30,11,59,29.10
2021,07,30,12,00,29.10
2021,07,30,12,01,29.10
2021,07,30,12,02,29.20
2021,07,30,12,03,29.20
2021,07,30,12,04,29.10
2021,07,30,12,05,29.00
2021,07,30,12,06,28.90
2021,07,30,12,07,29.00
2021,07,30,12,08,29.10
2021,07,30,12,09,29.20
2021,07,30,12,10,29.30
2021,07,30,12,11,29.30
2021,07,30,12,12,29.30
2021,07,30,12,13,29.30
2021,07,30,12,14,29.30
2021,07,30,12,15,29.30
2021,07,30,12,16,29.40
2021,07,30,12,17,29.50
2021,07,30,12,18,29.60
2021,07,30,12,19,29.80
2021,07,30,12,20,30.00
2021,07,30,12,21,30.10
2021,07,30,12,22,30.20
2021,07,30,12,23,30.30
2021,07,30,12,24,30.10
2021,07,30,12,25,30.00
2021,07,30,12,26,30.00
2021,07,30,12,27,30.00
2021,07,30,12,28,30.00
2021,07,30,12,29,30.10
2021,07,30,12,30,30.10
2021,07,30,12,31,30.30
2021,07,30,12,32,30.40
2021,07,30,12,33,30.40
2021,07,30,12,34,30.50
2021,07,30,12,35,30.50
2021,07,30,12,36,30.50
2021,07,30,12,37,30.40
2021,07,30,12,38,30.20
2021,07,30,12,39,30.10
2021,07,30,12,40,30.00
2021,07,30,12,41,30.00
2021,07,30,12,42,30.10
2021,07,30,12,43,30.10
2021,07,30,12,44,30.10
2021,07,30,12,45,30.10
2021,07,30,12,46,30.20
2021,07,30,12,47,30.20
2021,07,30,12,48,30.20
2021,07,30,12,49,30.20
2021,07,30,12,50,30.20
2021,07,30,12,51,30.20
2021,07,30,12,52,30.10
2021,07,30,12,53,30.10
2021,07,30,12,54,30.00
2021,07,30,12,55,29.90
2021,07,30,12,56,29.90
2021,07,30,12,57,29.90
2021,07,30,12,58,30.00
2021,07,30,12,59,30.00
2021,07,30,13,00,30.00
2021,07,30,13,01,29.90
2021,07,30,13,02,29.80
2021,07,30,13,03,29.80
2021,07,30,13,04,29.80
2021,07,30,13,05,29.90
2021,07,30,13,06,29.90
2021,07,30,13,07,29.90
2021,07,30,13,08,29.80
2021,07,30,13,09,29.80
2021,07,30,13,10,29.80
2021,07,30,13,11,29.80
2021,07,30,13,12,29.80
2021,07,30,13,13,29.90
2021,07,30,13,14,30.00
2021,07,30,13,15,30.10
2021,07,30,13,16,30.10
2021,07,30,13,17,30.20
2021,07,30,13,18,30.30
2021,07,30,13,19,30.30
2021,07,30,13,20,30.20
2021,07,30,13,21,30.20
2021,07,30,13,22,30.10
2021,07,30,13,23,30.10
2021,07,30,13,24,30.20
2021,07,30,13,25,30.20
2021,07,30,13,26,30.10
2021,07,30,13,27,30.10
2021,07,30,13,28,30.10
2021,07,30,13,29,30.10
2021,07,30,13,30,30.10
2021,07,30,13,31,30.10
2021,07,30,13,32,30.20
2021,07,30,13,33,30.20
2021,07,30,13,34,30.30
2021,07,30,13,35,30.30
2021,07,30,13,36,30.30
2021,07,30,13,37,30.30
2021,07,30,13,38,30.20
2021,07,30,13,39,30.10
2021,07,30,13,40,30.00
2021,07,30,13,41,30.10
2021,07,30,13,42,30.00
2021,07,30,13,43,29.90
2021,07,30,13,44,29.80
2021,07,30,13,45,29.70
2021,07,30,13,46,29.70
2021,07,30,13,47,29.70
2021,07,30,13,48,29.70
2021,07,30,13,49,29.70
2021,07,30,13,50,29.80
2021,07,30,13,51,30.00
2021,07,30,13,52,30.10
2021,07,30,13,53,30.10
2021,07,30,13,54,30.10
2021,07,30,13,55,30.10
2021,07,30,13,56,30.20
2021,07,30,13,57,30.20
2021,07,30,13,58,30.10
2021,07,30,13,59,30.10
2021,07,30,14,00,30.10
2021,07,30,14,01,30.10
2021,07,30,14,02,30.10
2021,07,30,14,03,30.10
2021,07,30,14,04,30.20
2021,07,30,14,05,30.20
2021,07,30,14,06,30.30
2021,07,30,14,07,30.40
2021,07,30,14,08,30.50
2021,07,30,14,09,30.60
2021,07,30,14,10,30.60
2021,07,30,14,11,30.60
2021,07,30,14,12,30.70
2021,07,30,14,13,30.90
2021,07,30,14,14,31.10
2021,07,30,14,15,31.10
2021,07,30,14,16,31.10
2021,07,30,14,17,31.10
2021,07,30,14,18,31.20
2021,07,30,14,19,31.30
2021,07,30,14,20,31.30
2021,07,30,14,21,31.20
2021,07,30,14,22,31.20
2021,07,30,14,23,31.30
2021,07,30,14,24,31.40
2021,07,30,14,25,31.50
2021,07,30,14,26,31.50
2021,07,30,14,27,31.60
2021,07,30,14,28,31.60
2021,07,30,14,29,31.60
2021,07,30,14,30,31.60
2021,07,30,14,31,31.60
2021,07,30,14,32,31.60
2021,07,30,14,33,31.50
2021,07,30,14,34,31.50
2021,07,30,14,35,31.50
2021,07,30,14,36,31.40
2021,07,30,14,37,31.50
2021,07,30,14,38,31.60
2021,07,30,14,39,31.70
2021,07,30,14,40,31.70
2021,07,30,14,41,31.70
2021,07,30,14,42,31.80
2021,07,30,14,43,31.90
2021,07,30,14,44,32.00
2021,07,30,14,45,32.00
2021,07,30,14,46,32.00
2021,07,30,14,47,32.00
2021,07,30,14,48,32.00
2021,07,30,14,49,32.00
2021,07,30,14,50,32.00
2021,07,30,14,51,32.00
2021,07,30,14,52,32.00
2021,07,30,14,53,32.10
2021,07,30,14,54,32.10
2021,07,30,14,55,32.10
2021,07,30,14,56,32.00
2021,07,30,14,57,32.00
2021,07,30,14,58,32.00
2021,07,30,14,59,32.00
2021,07,30,15,00,32.00
2021,07,30,15,01,32.00
2021,07,30,15,02,32.00
2021,07,30,15,03,31.90
2021,07,30,15,04,31.90
2021,07,30,15,05,31.70
2021,07,30,15,06,31.70
2021,07,30,15,07,31.60
2021,07,30,15,08,31.60
2021,07,30,15,09,31.60
2021,07,30,15,10,31.70
2021,07,30,15,11,31.80
2021,07,30,15,12,32.00
2021,07,30,15,13,32.20
2021,07,30,15,14,32.20
2021,07,30,15,15,32.20
2021,07,30,15,16,32.20
2021,07,30,15,17,32.20
2021,07,30,15,18,32.00
2021,07,30,15,19,32.00
2021,07,30,15,20,31.90
2021,07,30,15,21,31.80
2021,07,30,15,22,31.80
2021,07,30,15,23,31.80
2021,07,30,15,24,31.90
2021,07,30,15,25,31.90
2021,07,30,15,26,32.00
2021,07,30,15,27,32.00
2021,07,30,15,28,32.10
2021,07,30,15,29,32.20
2021,07,30,15,30,32.30
2021,07,30,15,31,32.40
2021,07,30,15,32,32.50
2021,07,30,15,33,32.40
2021,07,30,15,34,32.40
2021,07,30,15,35,32.30
2021,07,30,15,36,32.40
2021,07,30,15,37,32.30
2021,07,30,15,38,32.40
2021,07,30,15,39,32.40
2021,07,30,15,40,32.40
2021,07,30,15,41,32.40
2021,07,30,15,42,32.50
2021,07,30,15,43,32.50
2021,07,30,15,44,32.60
2021,07,30,15,45,32.70
2021,07,30,15,46,32.70
2021,07,30,15,47,32.80
2021,07,30,15,48,32.80
2021,07,30,15,49,32.80
2021,07,30,15,50,32.80
2021,07,30,15,51,32.70
2021,07,30,15,52,32.80
2021,07,30,15,53,32.90
2021,07,30,15,54,32.90
2021,07,30,15,55,32.90
2021,07,30,15,56,33.00
2021,07,30,15,57,33.10
2021,07,30,15,58,33.20
2021,07,30,15,59,33.20
2021,07,30,16,00,33.20
2021,07,30,16,01,33.10
2021,07,30,16,02,33.10
2021,07,30,16,03,33.10
2021,07,30,16,04,33.10
2021,07,30,16,05,33.00
2021,07,30,16,06,32.90
2021,07,30,16,07,32.80
2021,07,30,16,08,32.80
2021,07,30,16,09,32.80
2021,07,30,16,10,32.70
2021,07,30,16,11,32.70
2021,07,30,16,12,32.70
2021,07,30,16,13,32.70
2021,07,30,16,14,32.60
2021,07,30,16,15,32.60
2021,07,30,16,16,32.60
2021,07,30,16,17,32.60
2021,07,30,16,18,32.70
2021,07,30,16,19,32.80
2021,07,30,16,20,32.80
2021,07,30,16,21,32.80
2021,07,30,16,22,32.80
2021,07,30,16,23,32.80
2021,07,30,16,24,32.80
2021,07,30,16,25,32.80
2021,07,30,16,26,32.80
2021,07,30,16,27,32.80
2021,07,30,16,28,32.80
2021,07,30,16,29,32.90
2021,07,30,16,30,32.90
2021,07,30,16,31,32.90
2021,07,30,16,32,32.90
2021,07,30,16,33,33.00
2021,07,30,16,34,33.10
2021,07,30,16,35,33.10
2021,07,30,16,36,33.10
2021,07,30,16,37,33.10
2021,07,30,16,38,33.10
2021,07,30,16,39,33.10
2021,07,30,16,40,33.20
2021,07,30,16,41,33.10
2021,07,30,16,42,33.20
2021,07,30,16,43,33.20
2021,07,30,16,44,33.30
2021,07,30,16,45,33.20
2021,07,30,16,46,33.20
2021,07,30,16,47,33.20
2021,07,30,16,48,33.20
2021,07,30,16,49,33.20
2021,07,30,16,50,33.20
2021,07,30,16,51,33.20
2021,07,30,16,52,33.20
2021,07,30,16,53,33.20
2021,07,30,16,54,33.20
2021,07,30,16,55,33.30
2021,07,30,16,56,33.30
2021,07,30,16,57,33.40
2021,07,30,16,58,33.30
2021,07,30,16,59,33.20
2021,07,30,17,00,33.20
2021,07,30,17,01,33.30
2021,07,30,17,02,33.30
2021,07,30,17,03,33.20
2021,07,30,17,04,33.20
2021,07,30,17,05,33.20
2021,07,30,17,06,33.20
2021,07,30,17,07,33.20
2021,07,30,17,08,33.30
2021,07,30,17,09,33.30
2021,07,30,17,10,33.30
2021,07,30,17,11,33.30
2021,07,30,17,12,33.40
2021,07,30,17,13,33.40
2021,07,30,17,14,33.40
2021,07,30,17,15,33.40
2021,07,30,17,16,33.40
2021,07,30,17,17,33.50
2021,07,30,17,18,33.60
2021,07,30,17,19,33.70